{"data":{"norad_id":53844,"intl_designator":"2022-114AC","name":"STARLINK-4745","alt_names":[],"object_type":"PAYLOAD","status":"ACTIVE","operator":null,"country":"US","launch_date":"2022-09-19","launch_site_code":"AFETR","launch_vehicle":null,"mission":null,"orbit_class":"UNKNOWN","rcs_meters":null,"size_class":null,"mass_kg":null,"dimensions":null,"purposes":["comms"],"wikipedia_slug":null,"has_3d_model":false,"image_url":null,"decayed_at":null,"tle_current":{"epoch":"2026-05-24T20:51:32.850144Z","epoch_age_seconds":93241,"freshness":"FRESH","line1":"1 53844U 22114AC  26144.86913021 -.00001604  00000+0 -82692-4 0  9994","line2":"2 53844  53.2168 312.0294 0001343 104.0925 256.0216 15.08857008204475","mean_motion":15.08857008,"eccentricity":0.0001343,"inclination_deg":53.2168,"raan_deg":312.0294,"arg_perigee_deg":104.0925,"mean_anomaly_deg":256.0216,"bstar":-8.2692e-5,"rev_number":20447,"period_min":95.436478895288,"perigee_km":538.76233844609,"apogee_km":540.62046715509,"semimajor_km":6917.8284028006,"source":"CELESTRAK","updated_at":"2026-05-25T13:38:17.574865Z"}}}